Wind_Speed
12 11 11 11 11 11 11 11 10 10 10 9 9 9 9 9 9 9 8 8 8 9 9 10 9 9 9 9 10 10 10 10 9 9 10 9 9 9 8 8 7 7 6
12 11 12 12 11 11 11 11 10 10 10 10 9 9 9 9 10 10 9 9 9 9 10 9 9 10 9 10 10 10 10 10 10 9 9 9 9 9 9 8 8 7 7
12 12 12 13 12 11 11 11 10 10 10 10 10 10 10 10 10 10 10 10 10 9 9 9 9 9 9 10 10 10 9 10 10 9 9 9 9 9 9 9 9 8 8
12 12 13 12 12 11 11 11 10 10 10 10 11 10 10 10 10 9 10 11 11 10 10 10 9 9 9 10 10 9 9 9 9 9 9 9 9 8 8 9 9 9 9
13 13 13 13 12 11 11 11 10 10 10 10 10 10 11 11 10 10 10 11 10 10 10 10 10 10 10 9 9 9 9 8 8 8 9 9 8 8 8 8 8 8 9
14 14 13 13 13 12 12 11 11 11 11 10 10 10 11 11 11 11 11 11 10 10 10 10 10 10 10 9 8 8 8 8 8 8 8 8 8 7 7 7 7 7 7
14 14 14 13 14 13 13 12 11 11 11 11 11 11 10 10 10 10 11 11 10 10 10 10 9 9 9 8 8 8 8 7 7 7 7 7 7 7 7 6 6 6 7
15 15 14 14 14 13 13 13 12 11 11 11 11 10 10 10 10 10 10 10 10 10 9 9 9 9 8 8 8 8 7 7 7 6 7 7 6 6 5 5 5 6 6
15 15 15 14 14 14 14 13 13 12 11 11 10 10 10 10 10 10 10 10 10 9 9 8 8 8 7 7 8 8 7 6 6 6 6 5 5 4 4 4 4 5 5
15 15 15 15 15 14 14 13 13 12 11 10 10 10 10 10 10 10 9 9 9 8 8 8 7 7 7 7 7 7 6 6 5 5 5 5 5 4 4 3 4 4 4
15 15 15 14 14 14 13 12 13 12 11 10 10 9 9 9 9 9 9 9 8 8 8 7 7 7 6 6 6 6 5 5 5 5 4 4 4 4 3 3 3 3 2
14 15 14 14 13 13 13 12 11 11 10 10 10 9 9 9 8 8 8 8 7 7 7 6 6 6 6 5 5 5 4 4 4 4 4 4 4 3 3 2 2 2 2
14 14 14 13 13 13 12 12 10 10 10 9 9 9 8 8 7 7 7 7 6 6 6 5 5 4 4 4 4 3 3 2 2 2 3 3 3 2 2 2 1 1 1
14 14 14 14 13 12 12 11 10 10 9 8 8 8 8 7 7 6 6 6 5 4 4 3 3 2 2 2 2 1 1 2 2 2 2 2 1 1 2 1 1 1 1
15 15 14 14 13 12 11 11 11 10 9 8 8 7 7 6 5 5 5 4 4 3 3 2 2 1 1 1 0 1 1 1 1 1 1 1 1 2 2 3 3 3 2
15 15 14 14 12 12 11 11 10 10 9 9 7 6 6 5 4 4 4 3 3 3 3 2 2 2 1 0 0 1 1 1 1 2 2 2 3 3 4 3 4 4 4
15 14 14 14 13 11 11 10 10 9 8 8 7 6 6 5 5 4 2 2 2 2 1 1 1 1 1 1 1 2 2 2 2 3 3 4 4 4 4 4 5 5 6
15 15 14 14 12 11 11 10 10 9 8 7 6 6 6 4 3 2 2 2 2 1 1 1 1 1 2 2 2 3 3 4 3 4 4 5 5 5 5 5 6 6 7
14 14 14 13 12 11 10 10 10 10 9 8 6 6 5 4 3 2 2 2 2 2 2 2 2 2 3 3 3 3 4 4 5 5 5 5 5 6 6 7 7 8 8
13 14 13 13 12 11 10 10 10 10 9 9 7 7 6 5 4 3 2 2 3 3 3 2 2 2 2 3 4 4 4 5 6 6 6 6 6 7 8 8 9 9 10
12 13 13 13 13 12 11 11 11 10 10 9 8 7 7 7 6 4 3 3 3 4 4 3 2 2 3 4 5 5 5 6 6 6 7 7 8 8 8 9 10 10 11
11 12 12 12 12 12 11 11 11 10 10 10 9 8 8 7 7 6 4 4 4 4 4 4 4 4 4 5 6 6 6 7 7 7 7 7 8 9 9 10 10 11 12
11 11 11 11 11 11 11 10 11 11 10 10 9 9 8 7 6 6 5 5 5 4 4 4 4 5 6 6 7 7 8 8 9 8 8 8 9 10 10 10 11 11 11
10 10 11 11 11 11 10 10 10 10 11 10 9 9 8 7 7 6 6 6 6 5 5 5 6 6 7 8 8 8 9 10 10 10 10 10 10 11 11 12 12 12 13
9 9 10 11 11 11 10 10 10 10 10 10 10 9 8 8 8 7 7 7 6 6 6 7 8 8 8 9 9 10 10 10 10 11 11 11 11 12 12 13 14 14 14
8 8 9 10 10 10 10 10 10 10 10 10 10 9 9 9 9 8 8 8 8 8 8 9 9 9 10 11 11 11 11 11 11 11 12 13 13 14 14 14 15 15 16
Wind_Direction
69 70 69 73 79 84 84 82 83 82 83 85 86 92 93 94 98 95 99 100 101 102 104 104 102 110 115 115 115 111 107 106 107 110 111 109 106 106 110 112 113 114 112
70 71 74 76 79 83 81 82 84 84 87 88 88 91 95 98 100 99 100 101 102 104 106 106 105 111 109 111 112 110 107 109 111 110 110 108 108 106 105 105 105 108 112
70 73 74 76 80 83 79 81 82 86 87 89 89 92 93 96 98 99 99 102 102 105 107 111 112 108 107 110 111 109 108 108 108 108 107 107 107 105 105 103 101 105 110
73 75 77 76 79 81 80 82 84 86 87 90 87 88 89 92 96 99 99 103 107 109 109 106 108 107 106 107 108 109 110 107 106 106 106 105 104 103 102 101 102 105 109
73 75 77 78 78 80 83 84 86 88 88 89 87 86 88 89 90 96 102 104 107 109 106 102 105 107 108 107 106 108 110 110 106 105 106 103 101 100 99 100 102 108 110
73 74 76 76 76 80 83 87 88 91 89 87 88 88 90 91 91 93 97 101 103 104 105 104 105 107 107 106 104 106 107 110 108 104 102 101 99 100 100 101 100 107 112
72 71 74 76 75 78 83 85 88 91 89 88 90 89 91 92 94 96 96 99 101 102 102 103 106 108 105 101 100 102 105 109 110 107 103 99 96 99 100 98 100 111 113
70 70 70 74 74 78 82 85 88 89 89 89 89 90 92 96 97 97 97 99 99 100 101 102 103 104 104 101 99 99 101 106 109 107 107 99 94 100 103 103 105 113 116
70 70 71 72 75 79 82 84 87 88 88 87 87 91 95 99 100 97 97 99 99 100 101 100 100 100 102 100 98 96 96 97 106 108 105 99 97 102 104 102 112 118 121
68 69 69 72 78 80 81 84 86 88 89 89 89 92 97 100 101 100 99 102 103 102 101 99 99 100 102 97 92 91 92 91 100 102 99 93 94 98 103 103 113 119 127
65 66 67 72 78 80 81 84 84 85 87 89 92 95 99 102 105 103 104 105 106 105 104 102 102 103 102 95 88 87 84 82 89 93 96 90 93 93 99 101 114 115 114
62 64 66 68 73 77 80 85 84 84 85 87 88 93 96 100 105 107 108 108 108 105 102 99 98 98 100 97 88 84 79 82 80 83 86 84 83 87 93 88 98 107 100
61 62 62 63 67 68 72 77 85 83 84 86 86 88 89 93 99 107 111 113 109 106 104 100 98 95 95 96 94 84 73 66 66 74 74 69 69 67 60 69 70 86 135
56 57 60 63 64 65 65 70 83 82 81 86 88 87 87 88 93 107 114 114 116 122 119 110 105 99 98 98 103 76 65 56 64 63 42 29 37 18 7 353 349 323 267
57 56 58 60 63 66 68 70 76 72 78 79 81 79 78 80 90 96 103 117 121 129 144 146 131 137 129 144 135 87 64 56 32 17 357 342 329 318 309 310 310 307 298
54 54 55 56 58 61 64 69 71 73 70 70 70 67 63 65 73 82 88 112 120 119 137 156 160 168 177 158 294 297 289 296 281 291 297 309 321 314 304 298 301 297 293
51 51 51 51 54 56 57 60 62 69 66 65 59 57 51 56 63 66 73 94 105 127 158 181 195 193 237 275 327 325 297 275 280 286 288 293 302 305 304 301 300 294 288
52 51 51 50 52 54 55 58 59 61 60 56 53 47 41 45 45 49 63 31 30 36 301 259 261 265 282 281 290 306 302 281 273 284 292 290 295 298 294 294 293 293 290
50 49 48 49 52 54 55 56 55 53 48 43 39 31 26 24 11 19 14 4 1 10 337 292 278 283 283 278 286 293 295 297 281 277 289 292 300 298 292 287 286 286 289
45 45 46 47 49 51 51 50 49 46 42 39 36 28 24 22 10 353 344 336 331 344 358 350 314 320 306 299 297 296 293 300 295 287 290 292 297 300 297 290 284 284 284
41 42 44 45 45 47 45 43 42 42 40 34 32 30 21 10 360 356 336 323 336 341 355 354 338 312 301 298 301 307 306 301 301 295 289 287 288 293 295 294 289 285 284
37 39 41 42 42 42 42 39 37 34 30 28 29 24 18 13 10 3 354 346 338 338 344 348 338 328 307 295 296 298 303 302 300 296 292 292 289 292 293 294 292 290 288
30 30 33 35 37 37 36 33 31 27 24 22 20 18 14 8 360 359 349 336 332 325 326 329 322 317 313 306 300 300 298 297 292 290 288 291 291 291 292 293 294 292 292
21 21 24 27 30 31 30 29 24 21 19 16 12 8 4 359 351 343 336 328 323 317 314 316 314 311 308 308 305 300 299 299 291 286 284 286 289 291 292 291 291 291 292
13 17 19 26 26 26 27 23 18 13 9 6 4 1 358 354 346 336 326 322 318 314 312 310 305 305 305 306 306 302 298 297 291 286 285 286 287 289 293 292 291 290 290
7 11 11 17 17 19 19 17 12 7 2 360 357 355 351 345 337 333 322 314 313 309 305 306 304 306 305 303 301 300 300 297 295 289 286 287 287 289 290 291 290 287 289
Height
5863 5862 5861 5860 5860 5860 5860 5860 5861 5862 5862 5863 5863 5864 5864 5864 5865 5865 5866 5867 5868 5869 5870 5871 5872 5872 5872 5873 5874 5875 5876 5877 5878 5878 5879 5880 5880 5881 5881 5882 5883 5883 5884
5865 5863 5863 5862 5862 5862 5862 5862 5863 5863 5864 5864 5865 5865 5866 5866 5867 5868 5868 5869 5870 5871 5872 5873 5873 5873 5873 5874 5876 5877 5877 5878 5879 5879 5880 5881 5881 5882 5882 5883 5883 5883 5884
5866 5865 5865 5864 5864 5864 5864 5864 5865 5865 5865 5866 5866 5867 5867 5868 5869 5869 5870 5871 5871 5872 5873 5874 5874 5875 5876 5876 5877 5878 5879 5879 5880 5881 5881 5882 5883 5883 5883 5884 5884 5885 5885
5868 5868 5867 5866 5866 5866 5866 5866 5866 5867 5867 5868 5868 5869 5869 5870 5870 5871 5871 5872 5873 5874 5874 5875 5876 5877 5878 5878 5879 5880 5880 5881 5881 5882 5883 5883 5884 5884 5885 5885 5885 5886 5886
5870 5870 5869 5868 5868 5868 5868 5868 5868 5868 5869 5869 5870 5871 5871 5872 5872 5873 5873 5874 5875 5875 5876 5877 5878 5879 5879 5880 5881 5881 5882 5882 5883 5883 5884 5884 5885 5886 5886 5886 5887 5887 5887
5872 5871 5871 5870 5870 5870 5870 5870 5870 5870 5871 5871 5872 5873 5873 5874 5874 5875 5875 5876 5876 5877 5878 5879 5880 5880 5881 5882 5883 5883 5883 5883 5884 5885 5885 5886 5886 5887 5887 5888 5888 5888 5889
5875 5874 5873 5872 5872 5871 5872 5872 5872 5872 5873 5873 5874 5875 5875 5876 5876 5877 5877 5878 5879 5879 5880 5881 5882 5882 5883 5884 5884 5884 5884 5885 5885 5886 5886 5887 5887 5888 5888 5889 5889 5889 5890
5877 5876 5875 5875 5874 5874 5874 5874 5874 5875 5875 5875 5876 5877 5877 5878 5878 5879 5879 5880 5881 5881 5882 5882 5883 5884 5885 5885 5885 5886 5886 5886 5887 5887 5888 5888 5888 5889 5889 5889 5890 5890 5890
5880 5879 5878 5877 5876 5876 5876 5876 5876 5877 5877 5877 5878 5878 5879 5879 5880 5881 5881 5882 5882 5883 5884 5884 5885 5886 5886 5887 5887 5887 5887 5888 5888 5888 5888 5889 5889 5889 5890 5890 5890 5891 5891
5882 5881 5880 5880 5879 5878 5878 5878 5878 5879 5879 5879 5879 5880 5880 5881 5882 5882 5883 5884 5884 5885 5885 5886 5886 5887 5887 5888 5888 5889 5889 5889 5889 5889 5889 5890 5890 5890 5890 5891 5891 5891 5892
5885 5884 5883 5882 5881 5881 5880 5880 5880 5881 5881 5881 5881 5881 5882 5883 5883 5884 5885 5885 5886 5886 5887 5887 5888 5888 5888 5889 5889 5889 5890 5890 5890 5890 5890 5890 5890 5890 5890 5891 5891 5892 5892
5888 5887 5886 5885 5884 5883 5883 5883 5882 5883 5882 5882 5882 5883 5883 5884 5885 5886 5886 5887 5887 5888 5888 5889 5889 5889 5890 5890 5890 5890 5890 5890 5891 5891 5891 5891 5891 5891 5891 5891 5891 5891 5892
5890 5889 5888 5887 5886 5886 5885 5884 5884 5884 5884 5884 5884 5884 5885 5885 5886 5887 5887 5888 5888 5889 5889 5890 5890 5890 5891 5891 5891 5891 5891 5891 5891 5891 5891 5891 5891 5891 5892 5892 5892 5892 5892
5893 5891 5890 5889 5889 5888 5887 5887 5886 5886 5886 5886 5886 5886 5886 5886 5887 5887 5888 5889 5889 5890 5890 5890 5891 5891 5891 5892 5892 5891 5891 5892 5892 5891 5891 5892 5892 5891 5892 5892 5892 5892 5892
5895 5894 5893 5892 5891 5890 5890 5889 5888 5888 5888 5888 5888 5888 5888 5888 5888 5888 5889 5889 5890 5890 5890 5891 5891 5891 5892 5892 5892 5892 5892 5892 5892 5892 5892 5892 5892 5892 5892 5892 5892 5892 5892
5898 5897 5896 5894 5893 5893 5892 5891 5891 5890 5890 5890 5889 5889 5889 5889 5889 5889 5889 5890 5890 5890 5890 5891 5891 5891 5892 5892 5892 5892 5892 5892 5892 5892 5892 5892 5892 5891 5891 5891 5892 5892 5892
5900 5899 5898 5897 5896 5895 5894 5894 5893 5892 5892 5892 5891 5891 5891 5890 5890 5890 5890 5890 5890 5890 5890 5890 5891 5891 5891 5891 5891 5892 5891 5891 5891 5891 5891 5891 5891 5891 5891 5891 5891 5891 5891
5903 5902 5901 5899 5898 5898 5897 5896 5895 5895 5894 5894 5893 5892 5892 5892 5891 5891 5891 5891 5890 5890 5890 5890 5891 5891 5891 5891 5891 5891 5891 5890 5890 5891 5891 5891 5891 5890 5890 5890 5890 5890 5890
5906 5905 5903 5902 5901 5900 5899 5898 5897 5897 5896 5895 5894 5893 5893 5892 5892 5892 5892 5891 5891 5890 5890 5890 5890 5890 5891 5890 5890 5890 5890 5890 5890 5890 5890 5890 5890 5889 5889 5889 5889 5889 5888
5908 5907 5905 5904 5903 5902 5901 5900 5899 5898 5897 5896 5895 5894 5893 5893 5892 5892 5892 5891 5891 5891 5890 5890 5890 5890 5890 5890 5890 5890 5890 5889 5889 5889 5889 5889 5889 5888 5888 5887 5887 5887 5887
5911 5909 5908 5906 5905 5904 5903 5902 5901 5900 5899 5897 5896 5895 5894 5894 5893 5892 5892 5892 5892 5891 5891 5890 5890 5890 5890 5890 5890 5889 5889 5888 5888 5888 5888 5887 5887 5887 5886 5886 5885 5885 5885
5912 5911 5910 5908 5906 5905 5904 5903 5902 5901 5900 5899 5897 5896 5895 5894 5894 5893 5892 5892 5892 5891 5890 5890 5890 5889 5889 5889 5888 5888 5888 5888 5887 5886 5886 5886 5886 5885 5885 5884 5883 5883 5882
5914 5913 5911 5910 5908 5906 5905 5904 5903 5902 5901 5900 5898 5897 5896 5895 5894 5893 5892 5892 5891 5891 5890 5890 5889 5889 5889 5888 5887 5887 5886 5886 5885 5885 5884 5884 5884 5883 5883 5882 5881 5881 5880
5915 5914 5913 5911 5909 5908 5906 5905 5904 5903 5902 5900 5899 5898 5896 5895 5894 5893 5892 5891 5891 5890 5890 5889 5889 5888 5888 5887 5886 5885 5885 5884 5883 5883 5883 5882 5881 5881 5880 5879 5879 5878 5877
5916 5915 5913 5912 5910 5909 5907 5906 5905 5904 5902 5901 5899 5898 5896 5895 5894 5893 5892 5891 5890 5889 5889 5888 5888 5887 5886 5885 5884 5883 5883 5882 5881 5881 5880 5880 5879 5878 5878 5877 5876 5875 5874
5916 5915 5914 5913 5911 5910 5908 5907 5906 5904 5903 5901 5899 5898 5896 5894 5893 5892 5891 5890 5889 5888 5888 5887 5886 5885 5884 5883 5882 5881 5880 5879 5879 5878 5878 5877 5876 5875 5875 5874 5873 5872 5871